TimeCDT,TemperatureF,Dew PointF,Humidity,Sea Level PressureIn,VisibilityMPH,Wind Direction,Wind SpeedMPH,Gust SpeedMPH,PrecipitationIn,Events,Conditions,WindDirDegrees,DateUTC
12:55 AM,75.9,66.0,71,30.15,10.0,South,8.1,-,N/A,,Clear,180,2013-07-18 05:55:00
1:55 AM,75.0,66.0,73,30.15,10.0,South,9.2,-,N/A,,Clear,180,2013-07-18 06:55:00
2:55 AM,72.0,66.0,81,30.15,10.0,South,4.6,-,N/A,,Clear,180,2013-07-18 07:55:00
3:55 AM,71.1,66.9,87,30.14,10.0,South,6.9,-,N/A,,Clear,190,2013-07-18 08:55:00
4:55 AM,70.0,66.0,87,30.14,10.0,South,6.9,-,N/A,,Clear,190,2013-07-18 09:55:00
5:55 AM,69.1,66.0,90,30.14,10.0,South,6.9,-,N/A,,Clear,180,2013-07-18 10:55:00
6:55 AM,70.0,66.9,90,30.14,10.0,South,8.1,-,N/A,,Clear,180,2013-07-18 11:55:00
7:55 AM,73.9,68.0,82,30.13,10.0,SSW,10.4,-,N/A,,Clear,200,2013-07-18 12:55:00
8:55 AM,79.0,66.9,66,30.12,10.0,SSW,18.4,23.0,N/A,,Clear,200,2013-07-18 13:55:00
9:55 AM,82.0,66.9,60,30.12,10.0,SSW,13.8,23.0,N/A,,Clear,210,2013-07-18 14:55:00
10:55 AM,84.9,66.9,55,30.10,10.0,SSW,18.4,26.5,N/A,,Clear,210,2013-07-18 15:55:00
11:55 AM,87.1,66.0,49,30.09,10.0,SSW,17.3,25.3,N/A,,Clear,210,2013-07-18 16:55:00
12:55 PM,89.1,66.9,48,30.07,10.0,South,16.1,26.5,N/A,,Mostly Cloudy,190,2013-07-18 17:55:00
1:55 PM,89.1,64.9,45,30.05,10.0,South,21.9,27.6,N/A,,Mostly Cloudy,180,2013-07-18 18:55:00
2:55 PM,90.0,64.0,42,30.03,10.0,SSW,16.1,26.5,N/A,,Partly Cloudy,200,2013-07-18 19:55:00
3:55 PM,91.9,64.0,39,30.00,10.0,SSW,18.4,28.8,N/A,,Clear,210,2013-07-18 20:55:00
4:55 PM,91.9,63.0,38,29.98,10.0,SSW,21.9,28.8,N/A,,Partly Cloudy,200,2013-07-18 21:55:00
5:55 PM,91.0,63.0,39,29.96,10.0,South,21.9,26.5,N/A,,Partly Cloudy,190,2013-07-18 22:55:00
6:55 PM,90.0,63.0,40,29.94,10.0,South,18.4,26.5,N/A,,Partly Cloudy,180,2013-07-18 23:55:00
7:55 PM,88.0,62.1,42,29.94,10.0,South,11.5,-,N/A,,Clear,180,2013-07-19 00:55:00
8:55 PM,84.0,64.0,51,29.94,10.0,South,10.4,-,N/A,,Clear,180,2013-07-19 01:55:00
9:55 PM,81.0,64.0,56,29.95,10.0,South,10.4,-,N/A,,Clear,170,2013-07-19 02:55:00
10:55 PM,81.0,63.0,54,29.97,10.0,South,11.5,-,N/A,,Clear,180,2013-07-19 03:55:00
11:55 PM,79.0,63.0,58,29.96,10.0,South,10.4,-,N/A,,Clear,190,2013-07-19 04:55:00